Location: Gerkesklooster
(53.2409°N, 6.2161°E)
Time: 11:16:08
(UTC+00:00)

Daily predictions for brighter satellites

Satellite Brightness Start Highest point End
(mag) Time Altitude Azimuth Time Altitude Azimuth Time Altitude Azimuth
Meteor 1-5 Rocket 4.3 18:18:07 10° S 18:23:50 84° ESE 18:29:46 10° NNE
SKYMED 2 4.4 18:20:02 10° N 18:24:21 59° WNW 18:28:37 10° SSW
Genesis I 4.2 18:21:56 10° WSW 18:25:15 42° NW 18:28:37 10° NE
NOSS 8 (A) 4.4 18:22:12 10° SW 18:25:58 83° NW 18:29:01 10° NE
Cosmos 1943 Rocket 2.5 18:20:35 10° NNW 18:25:59 50° NE 18:31:20 10° SE
Cosmos 841 Rocket 3.6 18:21:40 10° SSW 18:26:51 83° WNW 18:32:03 10° NNE
USA 276 3.1 18:24:41 10° W 18:27:22 32° SSW 18:29:54 10° SE
Cosmos 1400 Rocket 2.7 18:26:09 10° NNW 18:30:01 88° E 18:33:47 10° SSE
ACS3 Solar Sail 2.6 18:26:32 10° ESE 18:32:15 36° ENE 18:37:58 10° N
Cosmos 1066 Rocket 4.4 18:26:30 10° NNW 18:32:25 88° ENE 18:38:16 10° SSE
BlueWalker 3 3.6 18:29:54 10° W 18:33:05 27° SW 18:36:16 10° SSE
Cosmos 2322 3.8 18:27:44 10° SSW 18:33:16 59° ESE 18:38:50 10° NE
Cosmos 2233 Rocket 4.0 18:28:30 10° S 18:34:39 86° E 18:40:53 10° NNE
Cosmos 1726 1.3 18:34:20 10° S 18:37:06 86° ESE 18:39:55 10° NNE
Resurs 1-3 3.7 18:33:26 10° SSE 18:37:46 83° WSW 18:42:09 10° NNW
Terra 3.8 18:36:12 10° ENE 18:38:24 13° NE 18:40:36 10° NNE
Cosmos 1315 Rocket 3.7 18:42:11 10° N 18:45:43 29° ENE 18:49:14 10° SE
SAR-Lupe-2 4.2 18:42:12 10° S 18:45:43 58° WSW 18:49:17 10° NNW
Cosmos 1125 Rocket 3.6 18:44:33 10° NNW 18:49:43 61° ENE 18:54:52 10° SE
Meteor PRIRODA 3.7 18:47:12 10° S 18:50:29 69° WSW 18:53:46 10° NNW
Cosmos 1464 Rocket 4.4 18:44:52 10° SSE 18:50:45 43° E 18:56:43 10° NNE
Cosmos 1842 3.0 18:47:22 10° N 18:51:00 80° E 18:54:36 10° SSE
ATLAS 2AS CENTAUR R/B 3.8 18:44:13 10° W 18:51:03 44° NNW 18:57:38 10° NE
USA 59 Rocket 1.1 18:49:30 10° WNW 18:53:03 42° SW 18:57:48 10° SSE
SL-16 R/B 3.9 18:53:32 11° E 18:53:35 11° E 18:55:00 10° E
Cosmos 1707 2.4 18:51:15 10° N 18:54:49 73° ENE 18:58:21 10° SSE
Cosmos 1515 Rocket 3.6 18:50:44 10° N 18:55:01 58° ENE 18:59:19 10° SSE
Cosmos 1536 3.2 18:51:50 10° SSE 18:55:20 36° E 18:58:54 10° NNE
Okean 3 Rocket 3.9 18:51:36 10° SSE 18:55:49 43° E 19:00:02 10° NNE
COSMOS 2428 2.7 18:51:23 10° SSW 18:57:03 71° ESE 19:02:47 10° NE
Okean O Rocket 2.0 18:57:51 10° SE 19:02:04 46° ENE 19:06:20 10° N
Cosmos 1818 3.7 18:56:42 10° SW 19:02:12 82° NW 19:07:44 10° NE
Feng Yun 1-1 Rocket 4.4 18:57:22 10° SSE 19:03:08 73° ENE 19:09:04 10° NNW
SL-14 R/B 4.4 19:00:18 10° N 19:03:29 25° ENE 19:05:27 17° ESE
Cosmos 2278 Rocket 2.5 19:00:03 10° NW 19:05:43 71° WSW 19:11:21 10° SSE
Meteor 1-13 Rocket 4.3 19:02:20 10° N 19:08:14 67° ENE 19:13:59 10° SSE
USA 306 2.4 19:05:33 10° SW 19:08:41 58° SSE 19:11:32 15° E
CZ-4 R/B 1.8 19:07:15 10° S 19:11:03 61° WSW 19:14:57 10° NNW
PSLV R/B 4.2 19:09:57 18° SE 19:12:06 36° ENE 19:15:20 10° N
Cosmos 2034 Rocket 4.3 19:07:15 10° SSE 19:13:00 42° E 19:18:44 10° NNE
CZ-4B R/B 3.2 19:09:03 10° SSE 19:14:30 89° ENE 19:19:54 10° NNW
Cosmos 1500 Rocket 4.3 19:10:48 10° SSE 19:14:40 31° E 19:18:31 10° NNE
Helios 1A 2.9 19:11:18 10° NNE 19:15:23 86° WNW 19:19:27 10° SSW
Cosmos 1766 Rocket 3.8 19:11:08 10° SSW 19:15:29 73° WNW 19:19:55 10° N
USA 290 3.8 19:13:02 10° NW 19:16:05 35° WSW 19:19:08 10° S
Resurs 01 Rocket 1.7 19:12:09 10° SSE 19:16:34 82° WSW 19:21:03 10° NNW
Meteor 1-23 Rocket 4.5 19:11:37 10° N 19:17:06 50° ENE 19:21:41 15° SE
Meteor 2-10 4.3 19:13:15 10° S 19:18:41 55° E 19:24:16 10° NNE
GEOS 3 Rocket 4.4 19:14:21 10° SSE 19:19:24 48° SW 19:24:26 10° NW
Cosmos 1743 Rocket 4.4 19:19:19 19° SE 19:21:24 28° E 19:25:07 10° NNE
USA 186 2.3 19:18:41 10° S 19:21:53 59° W 19:25:06 10° NNW
Cosmos 1814 Rocket 4.1 19:18:04 10° SSW 19:23:22 81° WNW 19:28:39 10° NNE
Cosmos 2360 Rocket 4.1 19:18:46 10° WSW 19:23:45 31° NW 19:28:45 10° NNE
MOS 1-B 4.3 19:18:36 10° SSE 19:24:24 85° ENE 19:30:13 10° NNW
SPOT 5 3.1 19:22:14 20° SE 19:25:06 44° ENE 19:29:19 10° N
Okean-O 3.0 19:23:05 20° SE 19:25:52 47° ENE 19:30:06 10° N
USA 267 3.5 19:21:01 12° E 19:27:05 66° N 19:33:33 10° WNW
Cosmos 2208 Rocket 4.4 19:22:50 10° S 19:27:42 39° ESE 19:32:40 10° NE
Cosmos 1408 Rocket 3.6 19:25:16 10° S 19:29:32 54° E 19:33:52 10° NNE
ISS -2.8 19:27:35 10° SSW 19:30:31 28° SSE 19:30:43 28° SE
CZ-4B R/B 4.2 19:27:31 10° S 19:31:13 40° W 19:35:05 10° NNW
NOSS 3-3 (A) 4.3 19:26:24 10° S 19:31:16 35° ESE 19:36:53 10° NE
SL-08 R/B 4.2 19:27:03 10° N 19:31:52 55° WNW 19:36:40 10° SW
Kosmos-1783 3.0 19:31:20 10° WSW 19:33:10 39° NW 19:33:12 39° NW
Cosmos 2237 Rocket 2.1 19:30:33 10° SSW 19:36:04 61° ESE 19:41:37 10° NE
MOS 1 4.3 19:31:48 17° SSE 19:36:14 66° ENE 19:41:53 10° NNW
Cosmos 2322 Rocket 4.5 19:31:50 10° W 19:36:29 25° NW 19:41:09 10° NNE
CSL-04 Rocket 3.9 19:33:01 10° S 19:38:21 69° WSW 19:43:40 10° NNW
Aureole 3 Rocket 3.8 19:32:23 10° S 19:38:41 52° E 19:43:15 10° NNE
Cosmos 2219 Rocket 3.8 19:35:45 10° WSW 19:41:01 37° NW 19:46:17 10° NNE
Cosmos 2297 4.1 19:38:44 10° NNW 19:44:13 50° NE 19:47:04 27° ESE
IKONOS-2 4.3 19:41:03 10° NNE 19:45:13 68° ESE 19:49:21 10° S
Meteor 1-11 Rocket 3.6 19:42:06 10° S 19:47:42 81° ESE 19:53:17 10° NNE
MOS 1 Rocket 3.7 19:45:38 26° SE 19:48:24 57° ENE 19:53:38 10° N
Spot 2 Rocket 4.1 19:50:58 29° ESE 19:52:44 39° ENE 19:57:25 10° N
NOSS 3-4 (A) 3.8 19:46:19 10° NW 19:52:49 70° NE 19:57:11 27° ESE
ATLAS CENTAUR R/B 1.1 19:49:26 10° SSW 19:52:56 52° SE 19:54:53 24° ENE
NOSS 3-4 (C) 3.8 19:46:26 10° NW 19:52:57 69° NE 19:57:18 27° ESE
Cosmos 158 Rocket 3.7 19:48:07 10° SSW 19:52:57 68° ESE 19:57:48 10° NNE
Cosmos 1805 Rocket 3.4 19:52:47 20° S 19:55:40 65° E 19:59:58 10° NNE
Cosmos 1428 Rocket 4.5 19:50:49 10° NNW 19:56:57 84° W 20:02:18 14° S
Cosmos 1733 3.8 19:56:39 10° SSW 20:00:00 49° WNW 20:03:22 10° N
Cosmos 2369 Rocket 2.5 19:57:14 10° NNW 20:02:53 55° NE 20:05:12 34° ESE
SL-24 R/B 4.3 20:01:56 27° SSE 20:04:35 77° E 20:09:25 10° N
Cosmos 1633 Rocket 4.4 20:06:10 24° ENE 20:06:10 24° ENE 20:08:54 10° NNE
Cosmos 1980 3.7 19:59:56 10° SSW 20:05:37 84° WNW 20:11:22 10° NNE
Cosmos 1862 Rocket 3.9 20:01:34 10° N 20:05:50 46° ENE 20:06:32 42° E
Cosmos 1441 Rocket 4.5 20:08:11 25° NE 20:08:11 25° NE 20:10:04 10° NNE
Meteor 1-21 4.2 20:01:31 10° NNW 20:07:19 80° ENE 20:10:23 29° SSE
Cosmos 1943 Rocket 3.4 20:04:34 10° NW 20:09:36 37° WSW 20:14:05 13° S
Cosmos 1707 Rocket 3.7 20:05:52 10° N 20:10:17 56° ENE 20:11:05 48° ESE
Sich 1 2.9 20:07:33 17° SSW 20:10:51 86° W 20:15:12 10° N
DELTA 2 DEB (DPAF) 3.9 20:06:43 10° NNE 20:10:52 62° ESE 20:11:47 48° SSE
Cosmos 2298 Rocket 4.4 20:08:18 10° NNW 20:13:32 61° WSW 20:16:27 26° S
NOSS 0 Rocket 4.3 20:08:05 10° SW 20:14:17 66° NW 20:20:32 10° NNE
Terra 1.8 20:13:53 46° SE 20:15:07 65° ENE 20:19:48 10° N
Cosmos 2150 Rocket 4.4 20:10:09 10° NNW 20:15:13 58° WSW 20:17:56 26° S
USA 32 4.3 20:10:25 10° N 20:15:38 68° W 20:19:24 19° S
ERS-1 Rocket 2.9 20:14:03 40° SSE 20:15:54 77° ENE 20:20:57 10° NNW
ACS3 Solar Sail 2.4 20:09:43 10° S 20:16:02 59° W 20:22:23 10° NNW
Cosmos 1666 Rocket 4.2 20:18:27 37° ENE 20:18:27 37° ENE 20:21:54 10° NNE
Cosmos 1570 Rocket 4.2 20:13:00 10° SSW 20:18:17 73° WNW 20:23:34 10° NNE
Cosmos 1975 2.6 20:18:58 70° ESE 20:19:05 70° E 20:22:59 10° NNE
Cosmos 1315 Rocket 4.4 20:18:14 10° NNW 20:21:47 32° W 20:24:27 15° SSW
Cosmos 2026 Rocket 4.1 20:15:32 10° NNW 20:21:48 75° W 20:25:51 23° S
Cosmos 1092 Rocket 4.1 20:15:56 10° NNW 20:22:16 77° W 20:26:28 23° S
Cosmos 1805 3.4 20:21:37 32° SSW 20:23:08 63° WNW 20:26:48 10° N
Ariane Rocket 3.1 20:24:21 48° ESE 20:25:26 59° ENE 20:30:26 10° N
Meteor 2-12 Rocket 4.4 20:19:25 10° NNW 20:25:37 83° W 20:28:56 29° S
Cosmos 836 Rocket 4.5 20:23:29 10° SSW 20:28:47 85° WNW 20:34:07 10° NNE
IRS-1A Rocket 4.3 20:26:28 33° S 20:29:12 80° WSW 20:34:55 10° NNW
Okean 3 3.3 20:28:30 10° N 20:32:41 75° ENE 20:32:44 75° E
SL-16 R/B 2.2 20:35:16 47° SSE 20:36:28 57° ESE 20:42:02 10° NE
Okean O Rocket 3.5 20:35:02 11° SSW 20:38:32 26° W 20:42:17 10° NW
Cosmos 1656 Rocket 3.8 20:34:02 10° NW 20:39:42 71° WSW 20:41:19 47° S
Cosmos 1634 Rocket 3.9 20:36:32 24° S 20:40:33 89° E 20:46:57 10° N
USA 306 3.0 20:37:47 10° W 20:40:35 55° WNW 20:40:35 55° WNW
ATLAS 2AS CENTAUR R/B 4.0 20:37:07 10° WNW 20:43:32 36° N 20:49:08 12° ENE
Okean 2 3.6 20:41:25 10° N 20:44:49 57° NNE 20:44:49 57° NNE
IRS-1C Rocket 4.4 20:45:02 40° SSW 20:46:50 64° WSW 20:52:05 10° NNW
Cosmos 773 Rocket 3.9 20:45:40 25° SSW 20:48:48 88° WNW 20:54:09 10° NNE
Okean 1-7 3.2 20:44:50 10° N 20:48:39 58° NE 20:48:39 58° NE
Cosmos 2263 4.1 20:45:09 10° NNW 20:50:56 84° ENE 20:51:55 63° SE
Cosmos 2228 Rocket 3.6 20:50:06 10° NNW 20:54:35 56° W 20:55:20 49° SW
Cosmos 1766 4.4 21:00:21 35° N 21:00:21 35° N 21:02:38 10° N
SPOT 3 Rocket 3.5 21:00:56 68° SSW 21:01:33 79° WSW 21:06:43 10° NNW
Okean-O 4.5 21:00:31 19° SW 21:02:26 25° W 21:06:07 10° NW
SPOT 5 4.4 21:01:23 21° SW 21:03:17 28° W 21:07:08 10° NW
Cosmos 2142 Rocket 4.3 21:02:36 59° SSE 21:03:48 79° E 21:09:59 10° NNE
CZ-4C R/B 4.2 21:01:31 10° NNE 21:04:14 44° N 21:04:14 44° N
ISS -0.7 21:03:39 10° WSW 21:03:42 10° WSW 21:03:42 10° WSW
ARIANE 5 R/B 4.2 21:08:15 24° NE 21:08:15 24° NE 21:10:56 10° N
NOSS 3-3 (C) 3.9 21:01:48 10° SW 21:07:25 80° NW 21:14:11 10° NE
USA 267 3.1 21:08:22 55° ESE 21:10:00 88° SSW 21:16:34 10° WNW
Cosmos 1655 Rocket 4.1 21:03:41 10° N 21:10:01 58° ENE 21:10:37 55° E
Cosmos 2344 4.2 21:04:51 10° NW 21:12:20 55° NNE 21:17:16 29° E
Cosmos 724 4.1 21:15:31 77° S 21:15:51 81° SE 21:21:42 10° NE
Cosmos 2180 Rocket 4.4 21:17:01 63° S 21:18:11 85° E 21:24:36 10° NNE
Cosmos 2237 Rocket 3.7 21:15:22 10° WSW 21:20:29 35° NW 21:25:37 10° NNE
NOSS 3-3 (A) 4.2 21:16:03 10° WSW 21:21:41 68° NW 21:28:27 10° NE
Cosmos 2279 Rocket 4.1 21:20:00 42° SSW 21:22:09 71° WNW 21:28:23 10° N
MetOp-A 4.2 21:23:14 57° NNE 21:23:14 57° NNE 21:27:23 10° NNW
Meteor 2-5 Rocket 4.2 21:18:44 10° N 21:24:27 49° ENE 21:24:27 49° ENE
Meteor 1-24 Rocket 4.2 21:19:40 10° N 21:25:23 50° ENE 21:25:23 50° ENE
Cosmos 1607 3.9 21:19:20 10° SW 21:25:50 87° NW 21:32:18 10° NE
ATLAS CENTAUR R/B 3.0 21:27:12 10° W 21:35:08 - NE 21:29:51 29° NW
Spot 2 Rocket 4.5 21:31:06 37° WSW 21:31:42 38° W 21:36:24 10° NNW
Cosmos 1633 Rocket 4.2 21:43:08 40° WNW 21:43:08 40° WNW 21:46:57 10° N
NOSS 3-4 (A) 4.4 21:37:17 10° NW 21:43:38 43° WSW 21:44:37 41° SW
NOSS 3-4 (C) 4.4 21:37:23 10° NW 21:43:45 43° WSW 21:44:43 41° SW
Cosmos 2369 Rocket 3.3 21:41:35 10° NW 21:46:42 34° WSW 21:46:58 34° WSW
Terra 3.7 21:52:34 20° W 21:53:08 21° W 21:56:41 10° NW
Cosmos 489 Rocket 4.4 21:47:15 10° NNW 21:53:37 81° NE 21:53:37 81° NE
ACS3 Solar Sail 4.4 21:58:55 10° W 22:01:29 12° WNW 22:04:03 10° NW
ALOS 2 4.4 22:10:19 27° NNE 22:10:19 27° NNE 22:12:40 10° N
Cosmos 1980 Rocket 4.1 22:04:24 10° NNW 22:08:39 21° NNE 22:10:31 18° ENE
Meteor 2-10 Rocket 4.4 22:13:48 45° NNE 22:13:48 45° NNE 22:17:39 10° NNE
Cosmos 2056 Rocket 4.2 22:09:48 10° NNW 22:13:50 53° NNW 22:13:50 53° NNW
USA 215 4.5 22:09:51 10° ENE 22:12:41 28° ENE 22:12:41 28° ENE
SL-16 R/B 3.5 22:17:00 17° WSW 22:20:53 37° NW 22:26:08 10° NNE
ATLAS 2AS CENTAUR R/B 3.0 22:28:53 10° NW 22:35:44 58° NNE 22:36:31 54° ENE
Cosmos 1943 3.8 22:41:44 54° NNW 22:41:44 54° NNW 22:46:30 10° NNE
Cosmos 1656 4.3 22:35:19 10° NNW 22:39:42 54° NNW 22:39:42 54° NNW
Cosmos 1553 Rocket 4.3 22:49:37 64° NNE 22:49:37 64° NNE 22:54:49 10° NNE
Cosmos 1709 Rocket 4.4 22:47:03 10° N 22:52:39 55° NE 22:52:39 55° NE
Cosmos 1697 Rocket 3.5 22:47:49 10° NNW 22:52:28 47° NNE 22:52:28 47° NNE
USA 267 4.3 22:55:43 31° W 22:55:43 31° W 22:59:35 10° WNW
ATLAS CENTAUR R/B 4.1 23:09:54 15° N 23:09:54 15° N 23:11:31 10° NNE
Cosmos 2344 3.9 23:19:08 10° NW 23:27:10 65° SW 23:27:14 65° SW
SL-16 R/B 4.3 23:29:31 10° NNW 23:34:01 23° NNE 23:37:43 13° ENE
S3M 4.3 23:44:43 61° NNW 23:44:43 61° NNW 23:49:51 10° N
CZ-2C R/B 4.4 23:46:19 23° ENE 23:46:46 24° ENE 23:50:49 10° N
Cosmos 1980 Rocket 3.0 23:48:07 10° NNW 23:52:13 47° N 23:52:13 47° N
